Lid_Strength_Index
7 8 8 8 8 8 13 18 21 15 17 20 23 25 22 17 19 19 20 21 21 23 23 24 24 23 21 17 19 23 22 27 26 22 23 24 22 21 22 24 26 24 26 25
7 7 8 8 8 9 16 19 19 15 17 23 23 22 21 19 20 20 20 21 20 21 23 24 23 22 18 16 18 21 19 26 26 23 23 22 23 25 23 23 24 28 25 23
7 7 8 8 8 9 15 19 21 19 20 21 22 23 22 21 18 19 19 20 20 22 23 21 23 22 17 16 15 10 11 22 23 22 23 23 22 22 19 17 22 25 22 18
7 7 8 8 9 9 14 18 21 20 23 22 23 22 21 21 21 19 19 20 20 22 24 23 22 19 17 15 12 11 12 16 17 16 16 20 16 17 18 19 17 19 18 21
7 7 8 9 9 10 15 19 19 20 22 21 22 20 22 21 20 21 21 22 20 22 25 22 21 18 17 17 15 15 13 16 14 16 14 14 16 15 17 17 19 21 25 22
7 7 8 9 9 11 15 16 16 18 20 22 22 22 21 20 20 20 19 20 20 19 17 16 16 16 14 12 14 12 13 14 14 18 14 14 18 17 18 22 24 18 20 23
7 7 8 9 9 11 14 15 17 21 22 20 20 19 20 20 20 22 18 17 19 16 14 14 14 14 14 13 13 11 13 15 14 17 15 21 19 18 16 20 21 21 21 22
8 8 9 9 10 9 13 13 16 21 25 19 19 20 21 22 21 21 18 16 17 15 16 18 20 20 19 16 15 14 11 13 16 17 18 19 22 21 21 21 22 22 22 20
8 8 9 10 10 9 13 14 14 19 24 24 20 21 21 24 25 21 17 15 15 15 15 19 26 24 20 22 20 17 15 17 15 19 19 22 23 17 16 17 22 20 20 22
9 9 10 10 10 9 13 13 13 17 23 21 22 24 24 20 22 23 19 19 17 14 18 19 21 24 20 21 25 24 22 24 22 18 19 23 20 18 16 25 24 17 18 21
9 10 10 9 9 9 13 14 13 17 23 22 20 20 24 22 21 23 21 20 17 16 21 20 19 18 20 22 23 25 25 26 25 22 22 24 18 18 21 20 17 17 17 17
10 10 10 9 9 9 11 16 14 16 21 21 17 18 17 17 17 18 17 19 18 16 19 19 17 18 19 23 27 22 25 26 25 24 24 19 17 19 17 17 18 17 18 17
10 10 10 9 9 9 12 16 16 18 21 19 19 19 17 15 16 12 19 18 15 15 13 16 17 21 18 23 25 24 22 20 22 21 20 19 18 16 16 15 17 16 15 15
10 9 8 8 9 11 13 16 15 15 17 23 21 15 17 14 14 13 12 13 11 12 13 16 18 20 17 23 22 23 22 20 23 23 21 21 18 18 18 16 14 14 14 14
8 8 9 10 11 11 14 15 15 15 18 24 19 16 15 14 15 16 15 13 13 14 17 18 20 17 19 20 22 26 23 23 24 24 22 22 22 21 17 18 17 16 15 15
8 10 11 10 10 11 13 19 15 12 15 20 23 15 17 15 15 15 15 14 14 15 18 19 19 16 18 25 26 23 20 18 18 20 18 20 19 19 19 20 20 18 15 16
9 9 9 10 10 14 18 19 15 10 13 18 20 20 17 15 16 14 15 14 16 17 20 21 21 19 18 24 28 22 19 19 18 19 22 23 23 20 19 21 18 16 17 21
8 9 9 10 10 12 17 14 10 12 16 17 27 24 20 16 18 20 14 21 19 18 20 19 21 19 19 26 25 24 20 20 22 21 21 19 18 20 19 20 21 18 17 18
8 9 11 15 16 17 16 10 12 14 17 26 25 27 28 16 17 17 17 18 21 17 21 21 18 21 27 24 22 21 23 22 21 19 20 19 22 19 18 19 18 20 18 19
10 14 17 21 18 10 12 17 20 20 19 20 27 20 26 20 19 22 22 24 24 26 21 19 24 27 27 24 22 20 21 21 20 19 18 17 17 17 17 19 18 18 18 17
15 18 20 18 13 17 20 24 26 25 29 22 23 23 24 18 24 24 27 30 28 32 25 26 32 33 28 24 24 22 21 19 19 18 17 17 16 17 16 16 15 15 15 16
14 16 16 18 21 24 28 31 26 29 31 24 25 22 21 19 18 26 27 32 28 32 23 30 35 29 27 25 22 21 19 18 17 16 16 16 15 15 15 15 15 15 14 14
17 20 27 25 28 31 34 36 33 32 25 25 23 25 22 21 20 31 30 32 34 24 33 33 30 28 23 22 19 18 17 16 16 16 15 15 15 15 15 16 15 15 15 15
25 29 31 32 33 29 31 28 26 22 23 21 23 28 26 24 29 33 34 30 29 38 38 34 31 27 23 20 17 17 17 17 16 16 16 16 17 16 16 16 16 16 16 15
30 28 34 31 24 24 25 22 22 20 20 23 26 28 25 29 32 27 30 33 37 32 32 29 27 22 19 18 17 17 17 17 18 18 18 17 17 17 17 16 16 16 16 16
26 26 30 23 27 27 26 27 25 20 22 22 24 33 33 34 34 33 37 36 35 30 28 23 20 19 18 18 17 18 18 18 18 17 17 17 16 17 16 16 16 16 16 17
28 29 21 23 25 26 25 23 22 20 23 30 31 33 34 31 35 34 32 33 28 26 20 19 18 19 18 18 18 18 18 18 18 18 17 17 16 17 18 19 17 17 16 17